www.pogodaiklimat.ru

Погода и климат >> Архив погоды >> Мозамбик >> Шаи-Шаи


ПОГОДА в Шаи-Шаи

  • Прогноз погоды в Шаи-Шаи
  • Монитор погоды в Шаи-Шаи

АРХИВ ПОГОДЫ в Шаи-Шаи

Время (UTC), дата Ветер
(напр.,м/с)
 
Видим.   Явления Облачность Т
(С)
Тd
(С)
f
(%)
Тe
(С)
Тes
(С)
Комфортность P
(гПа)
Po
(гПа)
Тmin
(С)
Tmax
(С)
R
(мм)
R24
(мм)
S
(см)
09 15.02 ЮВ 3 15 км в посл. час дождь 10/10 600 м
[Cu med, cong]
+26.3 +24.1 88 +37 +37 очень
душно
1014.0 1013.4
12 15.02 Ю 2 15 км в посл. час дождь 10/10 600 м
[Cu med, cong]
+25.8 +24.8 94 +37 +37 очень
душно
1011.1 1010.5 13
15 15.02 ЮВ 2 10 км в посл. час дождь 10/10 600 м
[Cu med, cong]
+24.5 +23.8 96 +33 +33 очень
душно
1010.4 1009.8
18 15.02 ЮВ 2 30 км {дождь} 9/9 600 м
[Cu med, cong]
+24.4 +23.7 96 +33 +33 очень
душно
1010.7 1010.1 +27.0 22
21 15.02 ЮВ 2 30 км 9/9 600 м
[Cu Sc]
+25.4 +24.5 95 +36 +36 очень
душно
1010.2 1009.6
00 16.02 штиль 0 30 км 10/10 600 м
[Cu Sc]
+25.4 +24.0 92 +35 +35 очень
душно
1009.1 1008.5
03 16.02 штиль 0 30 км {дождь} 10/10 600 м
[Cu med, cong]
+25.0 +23.8 93 +34 +34 очень
душно
1008.6 1008.0
06 16.02 С 2 8000 м слаб. дождь 9/9 600 м
[Cu med, cong]
+25.5 +24.1 92 +35 +36 очень
душно
1009.4 1008.8 +24.4 22
09 16.02 С 3 8000 м слаб. дождь 9/9 600 м
[Cu med, cong]
+27.1 +24.7 87 +39 +40 очень
душно
1008.9 1008.3
12 16.02 штиль 0 15 км в посл. час дождь 9/9 600 м
[Cu Sc]
+29.0 +26.5 86 +44 +46 опасность
перегрева
1007.0 1006.4 1
15 16.02 ЮВ 3 30 км {дождь} 6/5 600 м
[Cu Sc Ac trans]
+28.2 +25.5 85 +41 +42 опасность
перегрева
1005.6 1005.0
18 16.02 ЮВ 2 30 км {дождь} 9/9 600 м
[Cu med, cong]
+26.5 +25.1 92 +38 +38 очень
душно
1005.9 1005.3 +29.8 1
21 16.02 штиль 0 30 км 9/9 600 м
[Cu med, cong]
+26.7 +25.3 92 +39 +39 очень
душно
1006.7 1006.1
00 17.02 С 2 20 км в посл. час дождь 10/9 600 м
[Cu med, cong]
+26.0 +24.6 92 +37 +37 очень
душно
1005.4 1004.8 0.2
03 17.02 Ю 4 8000 м слаб. ливневой дождь, в посл. час гроза 10/10 600 м
[Cb cap]
+25.0 +24.6 98 +35 +35 очень
душно
1005.2 1004.6
06 17.02 ЮЗ 4 10 км в посл. час дождь {гроза} 10/10 600 м
[Cu med, cong]
+25.3 +23.7 91 +34 +34 очень
душно
1006.8 1006.2 +24.0 310
09 17.02 Ю 7 30 км 9/9 600 м
[Cu Sc]
+26.5 +23.6 84 +36 +37 очень
душно
1006.7 1006.1
12 17.02 Ю 9 30 км 9/9 600 м
[Cu Sc]
+28.0 +22.7 73 +37 +37 очень
душно
1006.4 1005.8
15 17.02 Ю 7 8000 м слаб. дождь 9/9 600 м
[Cu med, cong]
+26.0 +23.1 84 +35 +35 очень
душно
1007.1 1006.5
18 17.02 Ю 10 8000 м слаб. дождь 8/8 600 м
[Cb calv Ci fib]
+25.0 +22.3 85 +33 +33 очень
душно
1009.2 1008.6 +28.0 7
21 17.02 Ю 10 8000 м слаб. дождь 8/8 600 м
[Cu med, cong]
+25.2 +21.1 78 +32 +32 очень
душно
1010.1 1009.5
00 18.02 Ю 11 30 км {дождь} 4/4 600 м
[Cu med, cong]
+25.1 +21.0 78 +32 +32 очень
душно
1009.4 1008.8 1
03 18.02 Ю 10 30 км 5/5 600 м
[Cu med, cong]
+25.3 +19.1 69 +30 +30 душно 1008.9 1008.3
06 18.02 Ю 9 30 км 5/5 600 м
[Cu med, cong]
+26.0 +20.5 72 +32 +33 очень
душно
1008.9 1008.3 +24.0 8
09 18.02 Ю 9 30 км 9/9 600 м
[Cu med, cong]
+26.1 +23.0 83 +35 +35 очень
душно
1011.0 1010.4
12 18.02 ЮЗ 7 25 км в посл. час дождь 5/5 600 м
[Cu med, cong]
+26.6 +23.5 83 +36 +38 очень
душно
1009.9 1009.3 2
15 18.02 Ю 7 30 км {дождь} 6/6 600 м
[Cu med, cong]
+26.5 +22.1 77 +34 +35 очень
душно
1009.5 1008.9
06 19.02 Ю 9 30 км 5/5 600 м
[Cu med, cong]
+26.6 +20.4 69 +33 +33 очень
душно
1011.8 1011.2 +24.5 2
09 19.02 Ю 9 30 км 8/8 600 м
[Cu med, cong]
+28.0 +23.5 77 +38 +39 очень
душно
1012.8 1012.2
12 19.02 Ю 8 30 км 5/5 600 м
[Cu med, cong]
+28.5 +21.2 65 +36 +37 очень
душно
1012.1 1011.5
15 19.02 Ю 9 30 км 3/3 600 м
[Cu med, cong]
+26.8 +21.1 71 +34 +34 очень
душно
1011.2 1010.6
18 19.02 Ю 6 30 км 1/1 600 м
[Cu med, cong]
+25.3 +20.8 76 +32 +32 очень
душно
1012.2 1011.6 +28.9
06 20.02 штиль 0 30 км 3/3 600 м
[Cu med, cong]
+24.8 +22.6 88 +33 +39 очень
душно
1012.5 1011.9 +21.0
09 20.02 штиль 0 30 км 5/5 600 м
[Cu med, cong]
+28.8 +20.9 62 +36 +49 очень
душно
1012.3 1011.7
12 20.02 ЮВ 3 30 км 4/4 600 м
[Cu med, cong]
+28.8 +20.9 62 +36 +43 очень
душно
1010.5 1009.9 +28.9
15 20.02 ЮВ 4 30 км 1/1 600 м
[Cu hum]
+28.6 +21.1 64 +36 +37 очень
душно
1009.7 1009.1
18 20.02 СВ 4 30 км ясно +25.1 +21.2 79 +32 +32 очень
душно
1010.6 1010.0 +29.7
00 21.02 В 6 30 км ясно +23.5 +21.2 87 +30 +30 очень
душно
1011.1 1010.5
03 21.02 В 6 30 км ясно +23.0 +21.5 91 +31 +31 очень
душно
1012.9 1012.3
06 21.02 СВ 2 30 км 1/1 600 м
[Cu hum Ac trans]
+26.4 +22.3 78 +34 +41 очень
душно
1015.0 1014.4 +22.9
18 21.02 ЮВ 3 30 км 1/1 600 м
[Cu med, cong]
+25.8 +22.6 83 +34 +34 очень
душно
1014.8 1014.2 +31.3
21 21.02 ЮВ 2 30 км 1/1 600 м
[Cu med, cong]
+25.0 +22.5 86 +33 +33 очень
душно
1016.1 1015.5
06 22.02 Ю 2 30 км 5/5 600 м
[Cu med, cong]
+25.0 +22.2 84 +32 +36 очень
душно
1016.2 1015.6 +22.0

 

Местоположение метеостанции Шаи-Шаи (Мозамбик): широта -25.05 долгота 33.63 высота над уровнем моря 5 м.

В архиве по умолчанию представлена погода в Шаи-Шаи за последнюю неделю. Архивные данные за месяц целиком и за предыдущие месяцы, начиная с января 2011 года, Вы можете получить, выбрав интересующий диапазон дат из раскрывающегося списка и нажав кнопку "Ввод!".


*Определитесь, кто Вы:
робот инопланетянин человек

Внимание! Время в таблицах - всемирное. Для получения местного времени необходимо прибавить поправку, которая равна 2 ч.

Смотрите также архив погоды в соседних городах и на ближайших метеорологических станциях:

Погода в Панда (Мозамбик) (119 км)
Погода в Мапуто (Мозамбик) (143 км)
Погода в Коматидрааи (Южная Африка) (181 км)
Погода в Чангалане (Мозамбик) (200 км)
Погода в Скукузе (Южная Африка) (205 км)
Погода в Вувулане (Свазиленд) (205 км)
Погода в Иньямбане (Мозамбик) (220 км)
Погода в Ситеки (Свазиленд) (228 км)
Погода в Майиване (Свазиленд) (232 км)
Погода в Пиггс-Пике (Свазиленд) (260 км)

Пояснения к столбцам:

Ветер - указаны скорость ветра в м/с - средняя за 10 мин, порывы в срок и между сроками (в фигурных скобках) и направление, откуда дует ветер: С - северный, СВ - северо-восточный, В - восточный, ЮВ - юго-восточный, Ю - южный, ЮЗ - юго-западный, З - западный, СЗ - северо-западный.
Видимость - горизонтальная дальность видимости в метрах или километрах. При видимости от 1 до 10 км при отсутствии осадков обычно наблюдается дымка, при ухудшении видимости до 1 км и менее - туман. В сухую погоду видимость может ухудшаться дымом, пылью или мглою.
Явления - указаны атмосферные явления, наблюдавшиеся в срок или в последний час перед сроком; фигурными скобками обозначены явления, наблюдавшиеся между сроками (за 1-3 часа до срока); квадратными скобками обозначены град или гололедные отложения с указанием их диаметра в мм.
Облачность - указаны через наклонную черту общая и нижняя облачность в баллах и высота нижней границы облаков в метрах; квадратными скобками обозначены формы облаков: Ci - перистые, Cs - перисто-слоистые, Cc - перисто-кучевые, Ac - высококучевые, As - высокослоистые, Sc - слоисто-кучевые, Ns - слоисто-дождевые, Cu - кучевые, Cb - кучево-дождевые. Подробнее классификацию облаков см. в Атласе облаков (PDF).
T - Температура воздуха - температура, измеренная на высоте 2 м над землей.
Td - Температура точки росы - температура, при понижении до которой содержащийся в воздухе водяной пар достигнет насыщения.
f - Относительная влажность воздуха - влажноcть воздуха, измеренная на высоте 2 м над землей.
Te - Эффективная температура - температура, которую ощущает одетый по сезону человек в тени. Характеристика душности погоды. При расчете учитывается влияние влажности воздуха и скорости ветра на теплоощущения человека.
Tes - Эффективная температура на солнце - температура, которую ощущает человек, с поправкой на солнечный нагрев. Характеристика знойности погоды. Зависит от высоты солнца над горизонтом, облачности и скорости ветра. Ночью, в пасмурную погоду, а также при ветре 12 м/с и более поправка равна нулю.
P - Атмосферное давление - приведенное к уровню моря атмосферное давление.
Po - Атмосферное давление - измеренное на уровне метеостанции атмосферное давление.
Tmin - Минимальная температура - минимум температуры воздуха на высоте 2 м над землей.
Tmax - Максимальная температура - максимум температуры воздуха на высоте 2 м над землей.
R - Количество осадков - Количество выпавших осадков за период времени, мм. При наведении курсора мыши на число - период времени, за который выпало указанное количество осадков.
R24 - Количество осадков - Количество выпавших осадков за 24 часа, мм.
S - Снежный покров - Высота снежного покрова, см. При наведении курсора мыши на число - состояние снежного покрова и степень покрытия местности в баллах.